Location: Unspecified
(52.0178°N, 0.0000°E)
Time: 15:29:53
(UTC+00:00)

O/OREOS (USA 219) - Pass Details

Date: 23 July 2019
Orbit: 621 x 646 km, 72.0° (Epoch: 22 May)

Event Time Altitude Azimuth Distance (km) Brightness Sun altitude
Rises 02:31:10 0° 152° (SSE) 2,940 ? -11.2°
Reaches altitude 10° 02:34:39 10° 124° (SE) 2,032 ? -10.9°
Maximum altitude 02:36:38 13° 98° (E) 1,854 ? -10.8°
Drops below altitude 10° 02:38:37 10° 72° (ENE) 2,033 ? -10.6°
Sets 02:42:05 0° 44° (NE) 2,943 ? -10.3°
